N1IJV-10 Weather Reports


time (UTC)temp
F
wind
direction
speed
knots
gust
knots
rain 1hr
in
rain 24hr
in
rain mn
in
humidity
%
barometer
mb
20260509231407 70 263 2.6 7.0 0.00 0.00 0.00 36 1005.1
20260509230905 71 333 2.6 7.0 0.00 0.00 0.00 36 1005.0
20260509230401 71 137 4.3 6.1 0.00 0.00 0.00 37 1004.8
20260509225857 71 86 1.7 5.2 0.00 0.00 0.00 38 1004.8
20260509225354 71 297 2.6 7.8 0.00 0.00 0.00 38 1004.8
20260509224849 71 270 3.5 6.1 0.00 0.00 0.00 36 1004.8
20260509224345 71 1 4.3 8.7 0.00 0.00 0.00 33 1004.7
20260509223843 72 213 3.5 5.2 0.00 0.00 0.00 38 1004.5
20260509223340 71 307 4.3 7.0 0.00 0.00 0.00 34 1004.5
20260509222837 72 307 6.1 7.8 0.00 0.00 0.00 34 1004.6
20260509222332 72 313 4.3 6.1 0.00 0.00 0.00 34 1004.5
20260509221827 72 35 1.7 6.1 0.00 0.00 0.00 35 1004.5
20260509221325 72 82 3.5 6.1 0.00 0.00 0.00 35 1004.4
20260509220825 73 275 5.2 7.0 0.00 0.00 0.00 35 1004.3
20260509220321 73 210 3.5 6.1 0.00 0.00 0.00 36 1004.2
20260509215817 73 17 2.6 6.1 0.00 0.00 0.00 36 1004.4
20260509215314 73 58 2.6 5.2 0.00 0.00 0.00 35 1004.3
20260509214811 73 289 3.5 8.7 0.00 0.00 0.00 34 1004.1
20260509214308 73 358 2.6 4.3 0.00 0.00 0.00 34 1004.1
20260509213805 73 303 6.1 8.7 0.00 0.00 0.00 34 1004.1
20260509213300 73 1 2.6 4.3 0.00 0.00 0.00 36 1004.0
20260509212758 72 76 1.7 6.1 0.00 0.00 0.00 36 1003.7
20260509212255 73 45 3.5 6.1 0.00 0.00 0.00 37 1004.0
20260509211750 74 287 3.5 7.0 0.00 0.00 0.00 36 1003.9
20260509211247 74 325 4.3 7.0 0.00 0.00 0.00 34 1003.6
20260509210743 74 224 4.3 6.1 0.00 0.00 0.00 34 1003.7
20260509210242 74 326 2.6 5.2 0.00 0.00 0.00 36 1003.7
20260509205741 73 85 2.6 7.0 0.00 0.00 0.00 39 1003.6
20260509205236 74 301 6.1 7.8 0.00 0.00 0.00 35 1003.6
20260509204732 73 12 4.3 7.0 0.00 0.00 0.00 36 1003.6
20260509204229 75 348 4.3 7.0 0.00 0.00 0.00 34 1003.5
20260509203725 75 27 2.6 6.1 0.00 0.00 0.00 34 1003.7
20260509203223 75 295 2.6 7.8 0.00 0.00 0.00 37 1003.5
20260509202719 75 281 4.3 7.8 0.00 0.00 0.00 34 1003.5
20260509202215 72 260 4.3 6.1 0.00 0.00 0.00 38 1003.5
20260509201709 72 43 3.5 7.0 0.00 0.00 0.00 36 1003.6
20260509201207 73 26 2.6 6.1 0.00 0.00 0.00 37 1003.6
20260509200703 73 185 2.6 6.1 0.00 0.00 0.00 35 1003.5
20260509200157 74 279 2.6 6.1 0.00 0.00 0.00 34 1003.8
20260509195653 74 278 2.6 5.2 0.00 0.00 0.00 36 1003.6
20260509195149 71 267 3.5 7.0 0.00 0.00 0.00 37 1003.7
20260509194643 72 268 3.5 6.1 0.00 0.00 0.00 38 1003.6
20260509194141 73 265 3.5 6.1 0.00 0.00 0.00 36 1003.7
20260509193636 71 306 6.1 7.8 0.00 0.00 0.00 36 1003.8
20260509193132 71 290 6.1 7.8 0.00 0.00 0.00 36 1003.7
20260509192629 72 253 4.3 5.2 0.00 0.00 0.00 40 1003.6
20260509192123 71 244 4.3 5.2 0.00 0.00 0.00 40 1003.7
20260509191618 71 283 2.6 5.2 0.00 0.00 0.00 38 1003.8
20260509191115 70 216 3.5 5.2 0.00 0.00 0.00 39 1003.9
20260509190611 71 166 4.3 6.1 0.00 0.00 0.00 37 1003.8
20260509190109 72 289 4.3 7.0 0.00 0.00 0.00 36 1003.7
20260509185606 72 38 2.6 4.3 0.00 0.00 0.00 37 1003.6
20260509185102 71 263 4.3 5.2 0.00 0.00 0.00 39 1003.4
20260509184601 72 300 4.3 6.1 0.00 0.00 0.00 35 1003.6
20260509184057 73 287 3.5 7.0 0.00 0.00 0.00 33 1003.6
20260509183552 74 74 0.9 4.3 0.00 0.00 0.00 36 1003.4
20260509183048 73 132 1.7 4.3 0.00 0.00 0.00 41 1003.5
20260509182545 72 263 3.5 5.2 0.00 0.00 0.00 35 1003.4
20260509182042 72 206 2.6 4.3 0.00 0.00 0.00 38 1003.5
20260509181540 72 264 3.5 5.2 0.00 0.00 0.00 38 1003.6
20260509181037 71 91 2.6 5.2 0.00 0.00 0.00 39 1003.6
20260509180532 72 245 3.5 6.1 0.00 0.00 0.00 40 1003.5
20260509180031 73 359 2.6 4.3 0.00 0.00 0.00 38 1003.5
20260509175525 73 209 2.6 5.2 0.00 0.00 0.00 38 1003.8
20260509175023 71 229 1.7 2.6 0.00 0.00 0.00 38 1003.7
20260509174519 72 26 2.6 5.2 0.00 0.00 0.00 40 1003.9
20260509174014 73 273 3.5 4.3 0.00 0.00 0.00 41 1003.8
20260509173509 71 307 3.5 4.3 0.00 0.00 0.00 40 1003.8
20260509173005 71 275 4.3 5.2 0.00 0.00 0.00 40 1003.7
20260509172503 72 234 2.6 5.2 0.00 0.00 0.00 43 1004.0
20260509171958 72 274 4.3 5.2 0.00 0.00 0.00 39 1003.8
20260509171454 72 70 2.6 4.3 0.00 0.00 0.00 43 1003.9
20260509170951 73 135 1.7 4.3 0.00 0.00 0.00 45 1003.8
20260509170446 72 256 4.3 7.8 0.00 0.00 0.00 40 1004.0
20260509165942 72 13 3.5 5.2 0.00 0.00 0.00 42 1003.7
20260509165442 73 287 4.3 6.1 0.00 0.00 0.00 41 1003.8
20260509164937 73 192 1.7 4.3 0.00 0.00 0.00 55 1003.8
20260509164433 72 184 1.7 7.8 0.00 0.00 0.00 51 1003.9
20260509163929 71 349 2.6 4.3 0.00 0.00 0.00 51 1004.0
20260509163427 71 250 2.6 2.6 0.00 0.00 0.00 52 1003.9
20260509162926 70 101 0.9 6.1 0.00 0.00 0.00 52 1003.9
20260509162425 70 175 2.6 4.3 0.00 0.00 0.00 54 1003.9
20260509161920 69 41 0.0 0.9 0.00 0.00 0.00 60 1003.7
20260509161417 69 187 3.5 6.1 0.00 0.00 0.00 55 1003.8
20260509160913 69 78 1.7 4.3 0.00 0.00 0.00 60 1003.8
20260509160408 68 4 1.7 2.6 0.00 0.00 0.00 58 1003.9
20260509155904 68 89 0.9 5.2 0.00 0.00 0.00 61 1003.8
20260509155401 68 294 2.6 7.0 0.00 0.00 0.00 62 1004.1
20260509154857 67 147 1.7 4.3 0.00 0.00 0.00 64 1003.8
20260509154354 67 66 2.6 5.2 0.00 0.00 0.00 65 1003.9
20260509153850 67 10 1.7 2.6 0.00 0.00 0.00 65 1003.8
20260509153347 66 86 1.7 6.1 0.00 0.00 0.00 66 1004.0
20260509152844 66 260 1.7 2.6 0.00 0.00 0.00 67 1003.7
20260509152340 66 208 2.6 5.2 0.00 0.00 0.00 67 1003.9
20260509151838 65 143 4.3 7.0 0.00 0.00 0.00 67 1004.0
20260509151333 65 95 0.9 2.6 0.00 0.00 0.00 69 1003.8
20260509150832 64 180 1.7 2.6 0.00 0.00 0.00 70 1003.9
20260509150329 64 58 0.9 5.2 0.00 0.00 0.00 70 1004.0
20260509145827 64 160 0.9 4.3 0.00 0.00 0.00 72 1004.1
20260509145321 63 144 1.7 1.7 0.00 0.00 0.00 74 1004.0
20260509144818 63 185 3.5 7.0 0.00 0.00 0.00 74 1003.8
20260509144315 63 166 5.2 7.0 0.00 0.00 0.00 73 1004.0
20260509143812 62 189 1.7 7.0 0.00 0.00 0.00 75 1004.0
20260509143310 62 185 3.5 5.2 0.00 0.00 0.00 74 1004.1
20260509142806 62 128 2.6 5.2 0.00 0.00 0.00 75 1003.9
20260509142306 62 78 0.9 2.6 0.00 0.00 0.00 78 1003.9
20260509141757 61 136 1.7 7.0 0.00 0.00 0.00 77 1003.7
20260509141255 61 89 0.9 5.2 0.00 0.00 0.00 77 1003.8
20260509140751 60 184 2.6 6.1 0.00 0.00 0.00 78 1003.9
20260509140248 61 53 1.7 2.6 0.00 0.00 0.00 78 1003.9
20260509135746 60 100 0.0 2.6 0.00 0.00 0.00 79 1004.0
20260509135243 60 79 0.0 2.6 0.00 0.00 0.00 82 1004.0
20260509134740 59 190 2.6 4.3 0.00 0.00 0.00 82 1003.9
20260509134238 59 227 2.6 7.0 0.00 0.00 0.00 82 1003.7
20260509133735 58 159 4.3 5.2 0.00 0.00 0.00 83 1003.5
20260509133231 58 142 2.6 5.2 0.00 0.00 0.00 85 1003.5
20260509132730 57 165 3.5 5.2 0.00 0.00 0.00 85 1003.5
20260509132229 57 122 1.7 8.7 0.00 0.00 0.00 86 1003.6
20260509131725 57 170 4.3 6.1 0.00 0.00 0.00 86 1003.6
20260509131221 56 241 4.3 6.1 0.00 0.00 0.00 87 1004.0
20260509130717 56 201 2.6 7.0 0.00 0.00 0.00 87 1003.7
20260509130213 56 125 1.7 5.2 0.00 0.00 0.00 88 1003.6
20260509125710 56 178 2.6 5.2 0.00 0.00 0.00 89 1003.7
20260509125207 55 139 2.6 4.3 0.00 0.00 0.00 89 1003.7
20260509124703 55 175 2.6 5.2 0.00 0.00 0.00 90 1003.7
20260509124200 55 221 1.7 2.6 0.00 0.00 0.00 90 1003.7
20260509123659 55 163 0.9 1.7 0.00 0.00 0.00 91 1003.6
20260509123155 54 93 0.9 8.7 0.00 0.00 0.00 92 1003.7
20260509122650 54 169 4.3 7.0 0.00 0.00 0.00 93 1003.6
20260509122148 53 151 0.9 4.3 0.00 0.00 0.00 95 1003.7
20260509121644 53 202 4.3 5.2 0.00 0.00 0.00 96 1003.6
20260509121142 53 225 0.0 1.7 0.00 0.00 0.00 97 1003.7
20260509120640 52 323 3.5 5.2 0.00 0.00 0.00 97 1003.6
20260509120138 52 138 1.7 4.3 0.00 0.00 0.00 98 1003.7
20260509115635 51 280 1.7 4.3 0.00 0.00 0.00 98 1003.8
20260509115133 51 218 1.7 2.6 0.00 0.00 0.00 99 1003.8
20260509114631 51 144 0.9 2.6 0.00 0.00 0.00 99 1003.7
20260509114129 51 129 1.7 1.7 0.00 0.00 0.00 99 1003.7
20260509113628 51 153 0.9 1.7 0.00 0.00 0.00 99 1003.3
20260509113124 51 180 0.9 2.6 0.00 0.00 0.00 99 1003.5
20260509112621 51 162 0.9 1.7 0.00 0.00 0.00 99 1003.3
20260509112118 51 171 0.9 1.7 0.00 0.00 0.00 99 1003.3
20260509111615 50 114 0.9 1.7 0.00 0.00 0.00 99 1003.1
20260509111112 50 132 0.9 1.7 0.00 0.00 0.00 99 1003.2
20260509110609 51 102 0.0 0.9 0.00 0.00 0.00 99 1003.2
20260509110106 51 105 0.0 1.7 0.00 0.00 0.00 98 1003.6
20260509105604 51 160 0.9 1.7 0.00 0.00 0.00 98 1003.5
20260509105101 51 119 0.0 1.7 0.00 0.00 0.00 98 1003.4
20260509104558 51 190 1.7 4.3 0.00 0.00 0.00 98 1003.2
20260509104055 51 146 0.9 2.6 0.00 0.00 0.00 98 1003.3
20260509103553 51 165 0.9 1.7 0.00 0.00 0.00 98 1003.2
20260509103051 51 139 0.9 2.6 0.00 0.00 0.00 98 1003.1
20260509102548 51 79 0.9 1.7 0.00 0.00 0.00 98 1003.0
20260509102045 51 104 0.0 1.7 0.00 0.00 0.00 98 1003.0
20260509101541 51 108 0.9 2.6 0.00 0.00 0.00 98 1002.9
20260509101038 51 108 0.0 0.9 0.00 0.00 0.00 98 1003.0
20260509100535 51 115 0.9 0.9 0.00 0.00 0.00 98 1002.9
20260509100032 51 133 0.0 0.0 0.00 0.00 0.00 98 1003.1
20260509095529 51 192 0.9 1.7 0.00 0.00 0.00 98 1003.2
20260509095027 51 117 0.0 1.7 0.00 0.00 0.00 98 1003.2
20260509094522 51 124 0.0 2.6 0.00 0.00 0.00 98 1003.5
20260509094020 51 133 0.0 1.7 0.00 0.00 0.00 98 1003.5
20260509093518 51 202 0.0 1.7 0.00 0.00 0.00 98 1003.4
20260509093015 51 153 0.9 0.9 0.00 0.00 0.00 98 1003.5
20260509092513 51 109 0.0 1.7 0.00 0.00 0.00 98 1003.5
20260509092012 51 117 0.0 0.0 0.00 0.00 0.00 98 1003.5
20260509091508 51 185 0.9 1.7 0.00 0.00 0.00 98 1003.8
20260509091005 51 142 0.9 1.7 0.00 0.00 0.00 98 1003.7
20260509090502 51 113 0.9 1.7 0.00 0.00 0.00 98 1003.7
20260509090000 51 151 0.9 1.7 0.00 0.00 0.00 98 1003.9
20260509085457 51 273 1.7 2.6 0.00 0.00 0.00 97 1003.7
20260509084953 51 101 0.9 1.7 0.00 0.00 0.00 97 1003.6
20260509084450 51 188 0.9 1.7 0.00 0.00 0.00 97 1003.8
20260509083947 51 236 0.9 4.3 0.00 0.00 0.00 97 1003.6
20260509083445 51 136 0.9 0.9 0.00 0.00 0.00 97 1003.7
20260509082941 51 156 0.9 1.7 0.00 0.00 0.00 97 1003.8
20260509082438 51 117 0.9 1.7 0.00 0.00 0.00 97 1003.8
20260509081935 51 134 0.9 1.7 0.00 0.00 0.00 96 1003.7
20260509081427 51 101 0.9 1.7 0.00 0.00 0.00 96 1003.8
20260509080924 51 140 0.9 1.7 0.00 0.00 0.00 95 1003.9
20260509080422 51 131 0.0 0.9 0.00 0.00 0.00 95 1003.5
20260509075920 51 152 0.0 0.9 0.00 0.00 0.00 95 1003.8
20260509075416 52 133 0.0 1.7 0.00 0.00 0.00 95 1003.8
20260509074914 52 102 0.0 0.0 0.00 0.00 0.00 94 1003.9
20260509074412 52 100 0.0 0.9 0.00 0.00 0.00 94 1003.7
20260509073908 52 115 0.0 0.0 0.00 0.00 0.00 93 1004.0
20260509073404 53 115 0.0 0.0 0.00 0.00 0.00 93 1003.8
20260509072901 53 149 0.9 2.6 0.00 0.00 0.00 92 1004.1
20260509072357 53 155 0.0 1.7 0.00 0.00 0.00 92 1004.3
20260509071854 53 142 0.9 1.7 0.00 0.00 0.00 92 1004.0
20260509071351 53 120 1.7 2.6 0.00 0.00 0.00 92 1004.1
20260509070848 53 218 1.7 2.6 0.00 0.00 0.00 92 1004.0
20260509070345 53 230 1.7 1.7 0.00 0.00 0.00 92 1004.3
20260509065841 53 164 1.7 1.7 0.00 0.00 0.00 91 1004.6
20260509065337 53 180 0.9 2.6 0.00 0.00 0.00 91 1004.4
20260509064833 53 159 0.9 1.7 0.00 0.00 0.00 91 1004.5
20260509064331 54 228 1.7 1.7 0.00 0.00 0.00 91 1004.6
20260509063829 54 138 0.9 1.7 0.00 0.00 0.00 90 1004.8
20260509063324 54 126 0.9 2.6 0.00 0.00 0.00 90 1004.7
20260509062822 54 203 2.6 5.2 0.00 0.00 0.00 90 1004.6
20260509062319 54 133 0.9 2.6 0.00 0.00 0.00 90 1004.6
20260509061816 54 253 1.7 2.6 0.00 0.00 0.00 90 1004.8
20260509061314 54 101 1.7 2.6 0.00 0.00 0.00 90 1004.8
20260509060811 54 139 0.9 1.7 0.00 0.00 0.00 90 1005.0
20260509060308 54 251 0.0 4.3 0.00 0.00 0.00 89 1005.1
20260509055803 54 147 0.9 4.3 0.00 0.00 0.00 90 1004.9
20260509055259 54 118 0.0 1.7 0.00 0.00 0.00 89 1005.0
20260509054755 54 143 0.9 4.3 0.00 0.00 0.00 89 1005.0
20260509054252 54 181 0.9 2.6 0.00 0.00 0.00 89 1005.1
20260509053751 55 159 3.5 5.2 0.00 0.00 0.00 90 1005.2
20260509053248 55 254 0.9 2.6 0.00 0.00 0.00 90 1005.1
20260509052746 55 174 0.9 2.6 0.00 0.00 0.00 90 1005.2
20260509052243 55 96 1.7 4.3 0.00 0.00 0.00 90 1005.3
20260509051740 55 171 1.7 2.6 0.00 0.00 0.00 90 1005.4
20260509051239 55 172 1.7 2.6 0.00 0.00 0.00 89 1005.0
20260509050735 55 97 0.0 2.6 0.00 0.00 0.00 89 1005.0
20260509050231 55 245 1.7 1.7 0.00 0.00 0.00 89 1004.9
20260509045729 55 136 2.6 4.3 0.00 0.00 0.00 89 1005.0
20260509045225 55 143 0.9 1.7 0.00 0.00 0.00 88 1005.2
20260509044723 55 259 1.7 2.6 0.00 0.00 0.00 87 1005.0
20260509044221 56 320 1.7 1.7 0.00 0.00 0.00 87 1005.1
20260509043716 56 192 2.6 4.3 0.00 0.00 0.00 86 1005.1
20260509043213 56 109 1.7 2.6 0.00 0.00 0.00 86 1005.1
20260509042709 56 45 1.7 2.6 0.00 0.00 0.00 85 1005.2
20260509042205 56 260 3.5 4.3 0.00 0.00 0.00 84 1005.3
20260509041702 56 29 0.9 1.7 0.00 0.00 0.00 84 1005.2
20260509041200 56 107 0.9 1.7 0.00 0.00 0.00 83 1005.2
20260509040658 57 257 1.7 2.6 0.00 0.00 0.00 82 1005.3
20260509040154 57 123 0.0 1.7 0.00 0.00 0.00 81 1005.2
20260509035651 57 174 0.9 2.6 0.00 0.00 0.00 80 1005.1
20260509035148 58 174 2.6 4.3 0.00 0.00 0.00 79 1005.4
20260509034645 57 218 2.6 7.0 0.00 0.00 0.00 78 1005.4
20260509034142 58 249 1.7 5.2 0.00 0.00 0.00 77 1005.5
20260509033639 58 169 3.5 5.2 0.00 0.00 0.00 76 1005.2
20260509033136 58 321 1.7 4.3 0.00 0.00 0.00 76 1005.3
20260509032634 58 311 2.6 6.1 0.00 0.00 0.00 75 1005.3
20260509032130 58 251 3.5 5.2 0.00 0.00 0.00 75 1005.3
20260509031628 58 231 1.7 2.6 0.00 0.00 0.00 75 1005.3
20260509031125 58 292 2.6 2.6 0.00 0.00 0.00 75 1005.4
20260509030624 59 163 2.6 2.6 0.00 0.00 0.00 75 1005.4
20260509030120 59 138 0.9 1.7 0.00 0.00 0.00 74 1005.4
20260509025616 59 241 2.6 2.6 0.00 0.00 0.00 73 1005.2
20260509025112 59 115 1.7 4.3 0.00 0.00 0.00 72 1005.4
20260509024608 59 160 1.7 4.3 0.00 0.00 0.00 71 1005.4
20260509024104 59 118 1.7 4.3 0.00 0.00 0.00 70 1005.5
20260509023602 59 251 2.6 4.3 0.00 0.00 0.00 67 1005.3
20260509023059 60 310 1.7 1.7 0.00 0.00 0.00 65 1005.2
20260509022555 60 131 0.9 1.7 0.00 0.00 0.00 63 1005.2
20260509022053 60 265 0.9 1.7 0.00 0.00 0.00 63 1005.4
20260509021550 60 82 0.0 0.9 0.00 0.00 0.00 63 1005.3
20260509021047 60 100 0.0 0.9 0.00 0.00 0.00 62 1005.4
20260509020545 60 161 1.7 1.7 0.00 0.00 0.00 61 1005.0
20260509020042 60 120 0.0 1.7 0.00 0.00 0.00 61 1005.3
20260509015541 60 125 0.0 0.0 0.00 0.00 0.00 61 1005.3
20260509015037 61 141 0.0 0.9 0.00 0.00 0.00 60 1005.0
20260509014534 61 113 0.0 2.6 0.00 0.00 0.00 60 1005.2
20260509014030 61 125 0.0 0.9 0.00 0.00 0.00 59 1005.2
20260509013528 61 118 0.0 0.9 0.00 0.00 0.00 59 1005.0
20260509013023 62 112 0.0 1.7 0.00 0.00 0.00 59 1005.1
20260509012520 62 104 0.0 0.9 0.00 0.00 0.00 59 1005.3
20260509012017 62 126 0.9 0.9 0.00 0.00 0.00 58 1005.1
20260509011515 62 147 0.9 1.7 0.00 0.00 0.00 58 1005.1
20260509011012 63 137 0.9 1.7 0.00 0.00 0.00 57 1004.9
20260509010509 63 151 0.9 1.7 0.00 0.00 0.00 56 1004.9
20260509010005 63 118 0.9 4.3 0.00 0.00 0.00 55 1004.9
20260509005504 64 120 1.7 5.2 0.00 0.00 0.00 54 1004.9
20260509004958 64 228 0.9 4.3 0.00 0.00 0.00 55 1004.9
20260509004455 64 187 1.7 2.6 0.00 0.00 0.00 55 1005.0
20260509003952 64 146 1.7 4.3 0.00 0.00 0.00 54 1005.1
20260509003451 64 188 1.7 1.7 0.00 0.00 0.00 54 1005.1
20260509002947 65 125 1.7 4.3 0.00 0.00 0.00 53 1005.0
20260509002445 65 211 1.7 2.6 0.00 0.00 0.00 52 1005.2
20260509001942 65 206 0.9 2.6 0.00 0.00 0.00 52 1005.2
20260509001438 65 224 4.3 6.1 0.00 0.00 0.00 52 1005.2
20260509000935 65 195 0.9 2.6 0.00 0.00 0.00 51 1005.3
20260509000434 65 109 0.0 4.3 0.00 0.00 0.00 51 1005.4
20260508235929 65 124 0.0 0.9 0.00 0.00 0.00 52 1005.1
20260508235427 65 126 0.9 0.9 0.00 0.00 0.00 51 1005.1
20260508234923 65 174 0.9 1.7 0.00 0.00 0.00 52 1005.4
20260508234420 65 197 0.9 1.7 0.00 0.00 0.00 51 1005.3
20260508233918 65 127 1.7 1.7 0.00 0.00 0.00 49 1005.4
20260508233417 66 118 2.6 6.1 0.00 0.00 0.00 50 1005.3
20260508232914 66 106 0.0 0.9 0.00 0.00 0.00 51 1005.2
20260508232410 66 105 0.9 0.9 0.00 0.00 0.00 49 1005.5
20260508231908 66 138 2.6 2.6 0.00 0.00 0.00 48 1005.1